Wind_Speed
35 34 31 28 24 18 20 6 4 8 15 8 8 12 13 3 8 7 4 3 4 6 7 8 11 12 6 1 6 7 5 5 10 17 15 13 12 16 10 8 16 14 10 6
38 36 34 33 29 26 21 3 3 7 14 9 10 11 12 8 9 9 6 5 5 5 4 4 6 12 6 10 7 4 8 6 9 12 14 19 14 18 18 17 15 16 11 9
39 40 37 36 33 31 22 4 4 2 5 11 11 15 13 13 7 9 6 5 4 8 8 9 4 8 6 6 9 10 6 12 15 13 15 16 12 15 13 15 9 14 15 18
43 43 41 40 36 34 19 4 5 9 6 9 12 11 7 14 8 11 8 8 14 11 6 10 14 14 14 11 12 16 10 16 15 17 19 21 22 22 19 21 21 18 15 22
45 44 42 43 39 38 22 4 3 7 6 17 15 9 11 10 12 8 10 12 8 11 13 12 6 3 8 11 8 11 15 19 15 8 14 19 21 17 16 22 24 25 25 25
49 48 47 45 43 42 15 15 10 6 5 12 13 14 13 9 11 9 12 9 9 10 10 8 10 10 11 12 14 12 11 8 11 19 16 18 19 12 20 24 24 23 21 17
52 51 48 47 46 46 18 17 8 5 4 10 12 8 15 14 11 12 7 11 12 7 4 8 10 12 15 16 18 18 18 15 13 14 14 19 16 17 14 15 15 15 16 14
40 45 50 50 48 47 18 17 9 4 6 8 11 15 12 12 13 14 15 15 12 9 2 6 7 9 10 17 24 23 20 15 10 13 15 17 22 16 15 8 14 13 8 8
46 44 50 48 47 45 24 15 14 4 3 8 9 10 9 10 10 11 15 16 15 9 4 4 9 8 9 5 4 21 20 14 11 9 14 15 11 4 5 1 10 4 1 2
47 47 44 44 46 44 36 10 16 7 4 7 5 9 9 9 8 7 5 3 7 7 4 6 9 13 15 12 11 8 13 12 16 14 13 13 16 9 5 6 2 3 2 4
48 49 45 45 46 42 38 22 18 15 4 7 5 10 9 6 4 3 1 3 7 3 4 5 9 7 10 12 12 7 11 9 9 11 15 14 11 7 5 3 1 3 1 3
49 43 39 40 41 35 32 12 16 13 6 3 5 17 20 15 17 8 4 5 3 3 3 3 5 6 4 10 5 14 8 11 9 7 6 3 3 3 3 1 2 2 1 3
41 40 41 40 38 34 33 19 16 7 2 2 7 14 22 21 23 21 11 11 7 3 6 2 3 7 6 6 10 14 11 12 7 6 5 8 5 4 4 3 2 2 3 5
38 36 34 32 30 29 29 20 17 13 3 3 6 14 17 19 22 27 26 23 14 10 4 1 4 6 6 7 7 8 3 4 7 11 13 6 6 7 7 5 4 5 4 6
33 30 27 27 25 24 27 19 19 19 8 2 4 10 16 18 20 19 21 22 16 6 3 3 4 6 6 9 7 8 9 9 7 5 4 7 2 4 5 6 6 5 6 7
26 26 25 23 24 24 20 1 15 25 13 2 3 5 9 11 15 14 18 17 11 4 3 3 3 10 4 3 6 11 11 10 6 3 3 4 4 5 5 6 5 6 6 7
23 23 22 25 24 21 5 2 6 31 13 2 3 4 4 6 11 6 6 9 2 3 2 3 2 2 3 2 9 7 5 3 2 5 8 5 6 3 6 6 7 6 7 9
24 24 25 21 21 14 8 2 14 29 7 3 3 4 4 5 2 3 1 2 2 2 2 2 3 4 3 5 10 13 6 5 6 7 2 1 6 8 8 9 8 8 8 8
24 22 23 20 4 4 7 10 25 11 3 3 4 4 2 3 2 1 2 2 3 4 3 3 4 3 5 10 11 11 10 9 8 6 4 6 7 8 8 8 8 8 8 9
27 15 4 2 6 19 19 5 4 3 3 3 3 6 3 4 2 3 3 4 3 5 6 6 4 6 10 5 4 4 9 7 9 9 7 7 7 8 8 7 6 7 8 10
5 2 2 8 21 7 2 3 4 4 4 4 5 12 7 4 5 2 3 3 4 3 4 3 3 4 6 4 7 6 8 8 7 2 2 5 8 9 9 8 7 9 10 10
7 10 8 6 2 3 5 5 5 6 6 7 6 4 4 2 2 3 4 2 2 2 4 3 3 3 2 4 7 8 9 7 6 5 7 7 10 11 10 10 9 9 9 11
6 3 3 3 3 7 5 8 5 5 5 5 5 3 3 3 3 2 3 3 3 1 3 3 2 3 3 7 8 9 8 9 8 8 8 10 11 10 10 9 9 12 10 10
1 3 4 4 5 5 5 3 0 3 3 7 6 3 2 3 4 2 3 1 2 3 3 3 5 3 2 6 7 8 8 7 8 8 9 9 10 10 12 11 13 13 12 12
2 3 3 5 2 2 2 1 1 1 4 8 5 2 4 2 2 3 2 3 4 5 2 3 2 1 3 6 5 7 6 5 6 8 6 9 11 11 11 10 10 10 12 11
1 2 3 1 3 3 1 1 1 2 4 5 3 3 3 4 3 4 5 3 3 2 2 1 1 2 2 4 3 5 6 6 8 8 8 10 9 9 9 10 9 9 10 10
2 1 1 2 3 2 2 1 2 4 6 4 2 3 2 2 2 3 1 1 3 2 2 2 5 4 2 3 5 6 7 8 9 9 10 9 8 10 9 8 5 8 8 10
Wind_Direction
216 209 203 199 194 189 184 184 216 166 175 191 212 231 230 53 201 191 198 284 276 253 268 262 262 268 250 30 296 269 257 279 271 266 275 274 265 278 269 257 267 271 276 272
216 207 205 195 190 182 178 199 162 174 209 205 208 231 211 229 209 209 198 236 246 263 245 275 279 266 290 308 262 299 299 242 260 261 238 233 248 256 260 270 276 270 279 272
216 208 201 196 189 185 187 168 167 155 222 250 230 212 215 212 230 242 224 251 225 240 242 243 243 239 241 266 267 40 326 267 267 273 292 312 275 276 294 290 267 276 265 285
216 207 199 194 188 185 190 209 225 177 178 224 224 223 224 212 194 226 213 225 229 231 221 262 249 245 261 272 266 259 247 262 267 275 284 286 285 286 292 284 283 277 298 284
202 199 201 189 187 184 194 169 199 164 227 198 213 198 218 222 213 194 218 232 211 223 237 212 251 256 256 268 266 293 226 251 263 263 271 267 263 263 262 264 268 271 274 280
205 197 197 192 186 181 202 201 215 231 205 186 197 218 215 234 244 209 246 238 250 243 254 285 279 281 275 261 268 254 254 254 248 264 264 272 264 244 237 256 260 263 269 281
194 188 193 194 190 185 182 189 194 210 206 215 201 212 220 224 229 235 224 230 243 272 39 327 280 262 260 260 250 239 248 244 248 264 278 269 270 258 257 249 261 276 281 287
200 193 194 197 193 190 185 178 189 191 213 202 212 210 219 221 229 233 256 257 265 281 21 279 271 251 246 241 237 234 225 241 256 249 253 263 271 235 228 242 277 283 294 307
193 194 195 196 195 193 190 181 199 177 238 214 227 227 247 251 250 256 253 249 254 247 202 216 247 250 247 244 232 207 222 219 233 245 235 255 269 128 79 71 275 70 278 249
192 191 197 199 195 194 193 183 190 169 220 246 242 213 224 216 231 240 220 200 234 201 189 214 247 249 254 248 244 178 193 203 225 230 254 267 282 127 125 250 342 163 291 141
188 189 194 194 194 197 193 200 195 208 222 239 210 248 241 212 217 231 101 270 213 160 226 226 237 252 250 239 252 192 184 201 218 235 250 262 261 111 231 61 138 141 159 128
179 179 184 191 194 193 193 206 194 207 234 334 299 253 253 263 276 274 237 264 213 207 234 239 284 256 263 232 247 206 220 215 215 217 210 359 282 38 96 323 223 194 139 123
175 178 184 186 191 193 195 198 184 160 102 263 255 245 246 246 246 253 262 252 243 242 249 287 270 262 264 238 237 253 263 228 254 271 287 276 198 215 212 196 200 134 120 151
174 177 183 188 192 195 194 189 185 177 133 254 263 235 238 243 239 234 237 249 261 254 250 262 267 260 281 274 285 285 337 297 260 259 260 233 245 232 204 185 167 146 145 153
173 176 179 183 187 191 193 195 195 192 197 269 271 305 259 242 234 234 234 231 235 230 229 213 239 269 276 265 281 260 258 256 251 256 287 289 347 204 176 178 186 164 152 153
165 171 178 182 185 180 165 108 196 195 201 231 261 278 253 229 222 234 221 218 224 195 184 222 248 261 271 285 278 269 253 262 303 274 92 74 106 116 157 176 156 153 156 156
172 176 173 171 170 170 144 192 161 189 172 159 265 247 161 242 252 242 240 225 175 167 190 225 223 255 260 246 245 268 305 275 176 146 135 128 167 150 153 143 134 149 147 150
155 163 169 174 172 145 150 100 158 159 120 205 249 260 203 156 178 185 105 116 117 187 209 228 224 217 208 253 249 262 213 178 185 174 178 56 142 138 148 139 148 149 146 145
150 151 151 138 137 138 138 120 154 139 171 203 214 245 235 141 153 145 175 183 177 161 215 205 177 184 222 241 247 233 180 187 172 172 167 145 156 156 152 153 156 157 153 155
140 123 86 110 152 126 123 122 181 179 225 237 244 250 227 188 169 201 192 203 189 192 201 151 221 240 237 245 283 214 166 184 158 165 170 169 168 165 161 158 162 157 159 154
128 110 92 91 140 143 152 180 202 173 217 210 232 223 224 202 222 214 235 219 187 229 157 227 233 242 205 227 213 147 150 157 166 138 130 176 164 165 163 151 151 149 155 160
128 115 111 128 160 181 197 192 186 209 218 170 208 190 139 133 230 226 228 230 223 235 141 228 250 98 60 198 150 138 139 136 134 144 138 144 153 158 155 153 154 155 149 134
102 70 135 196 165 216 221 183 197 200 160 171 148 124 113 146 224 252 230 200 204 166 205 230 48 91 163 138 142 132 117 119 114 113 124 135 140 144 152 149 142 134 132 139
182 180 177 233 175 229 221 307 301 61 132 158 137 117 158 159 185 205 218 101 213 216 230 218 106 100 43 133 139 135 122 104 109 114 119 107 110 89 88 123 144 144 137 149
212 206 221 218 289 312 338 327 261 127 205 149 140 169 155 149 135 212 144 175 227 222 234 68 78 180 198 139 150 127 116 97 102 115 102 110 119 114 103 122 131 140 145 144
282 242 242 234 258 165 201 253 133 210 198 193 204 146 174 189 177 186 214 217 226 98 63 62 148 123 70 114 92 99 113 126 120 115 122 120 116 114 118 121 122 133 147 144
239 199 291 304 299 24 75 265 156 202 194 203 166 154 166 111 213 205 240 315 54 101 107 83 64 82 104 101 86 81 95 97 103 107 109 112 121 127 130 126 118 122 128 137
Height
784 790 793 800 805 812 815 814 814 813 817 813 806 803 794 801 797 798 796 797 795 794 793 796 792 790 780 781 779 781 772 778 785 771 755 752 757 759 760 777 769 761 768 767
778 783 789 793 801 807 810 811 808 815 814 803 801 794 793 803 797 794 794 796 796 797 804 807 803 793 785 784 784 784 778 782 782 767 757 753 759 756 753 751 754 767 777 762
770 776 783 790 796 802 807 808 811 817 814 796 788 792 796 799 799 796 795 797 799 801 804 802 813 797 791 790 788 797 795 785 781 778 770 765 771 769 761 762 773 767 763 761
762 768 775 783 791 797 806 801 794 799 807 807 795 785 790 791 796 798 796 797 799 800 811 806 800 795 791 789 790 792 795 789 783 777 773 769 765 759 756 756 751 757 758 752
753 761 769 774 785 793 800 800 792 788 781 796 796 792 791 791 788 794 796 795 789 793 794 797 796 793 794 794 792 786 782 784 785 794 783 774 773 772 772 762 757 752 747 741
742 753 763 773 780 787 792 792 788 787 785 785 793 790 794 793 791 791 793 792 791 792 792 793 794 796 799 798 795 789 785 785 784 776 768 762 759 760 757 748 742 739 737 733
734 744 756 766 773 779 783 786 790 787 787 780 782 788 790 791 793 792 791 793 794 793 794 798 794 794 793 792 789 786 784 782 780 776 772 775 749 735 732 733 732 730 728 728
731 742 750 761 769 777 781 783 787 786 787 782 784 786 786 786 788 793 792 788 789 792 803 802 796 779 781 775 773 770 771 775 780 776 767 752 736 726 727 733 736 727 726 730
726 736 747 757 765 773 780 782 786 789 787 783 782 782 785 786 788 792 790 789 790 794 805 805 790 770 755 750 748 752 762 772 778 764 764 754 729 729 729 734 740 734 736 737
722 732 743 753 761 769 777 781 786 790 792 783 783 786 788 787 786 782 779 787 785 788 798 795 779 764 750 749 744 755 761 773 774 766 757 739 722 726 733 745 745 742 739 740
719 729 740 749 757 766 774 779 784 787 786 783 786 786 785 786 792 790 782 786 781 793 793 784 762 755 745 746 736 748 749 760 756 756 754 752 722 731 741 739 740 740 741 743
716 727 737 746 756 764 773 779 782 787 790 788 789 787 787 785 784 788 784 783 789 791 789 782 764 754 745 743 750 733 746 736 734 735 735 733 732 736 736 739 738 743 743 748
716 727 737 745 754 763 771 777 781 786 791 791 789 781 783 784 785 786 787 779 784 787 787 784 776 764 744 746 736 729 735 718 726 733 728 725 733 738 739 741 742 744 747 750
718 728 738 746 755 762 769 773 778 784 789 785 774 773 774 776 777 779 780 781 782 783 782 787 776 761 744 736 734 730 722 729 727 728 725 727 733 734 738 742 745 747 750 753
722 731 739 747 754 761 768 774 775 779 782 776 773 771 768 768 769 771 773 775 778 778 784 781 769 753 750 736 733 728 721 723 731 732 729 726 733 733 738 744 747 749 752 756
725 733 740 746 753 761 768 773 775 777 780 783 772 757 757 759 761 762 764 767 771 776 778 773 763 754 754 747 733 723 721 718 721 727 732 736 739 740 743 744 748 752 754 757
727 733 740 746 753 756 763 766 763 771 779 782 774 751 749 754 756 757 759 763 764 770 770 768 764 761 757 753 736 722 725 725 731 734 737 740 741 741 746 747 751 756 756 760
728 735 742 748 753 759 763 763 763 770 776 780 769 752 748 756 758 760 762 764 766 769 766 764 759 752 755 744 727 724 723 730 735 736 737 736 739 743 747 750 754 757 760 764
732 738 743 749 753 756 759 763 766 769 775 770 766 750 740 757 758 760 761 762 758 761 757 753 755 750 744 729 720 716 724 730 732 737 738 739 741 744 749 752 755 758 764 768
735 740 745 750 753 756 759 767 768 770 769 764 758 742 742 750 755 753 750 747 744 740 736 741 742 725 720 717 718 715 722 727 732 736 739 740 742 747 751 754 757 761 765 768
737 742 745 751 754 757 760 760 760 760 757 754 742 735 737 746 744 744 743 736 727 728 728 730 722 713 712 715 717 720 725 730 732 734 736 739 743 749 753 757 760 763 767 770
739 742 748 752 754 754 752 747 746 743 725 731 728 727 734 747 746 743 738 731 728 724 728 730 721 717 722 721 722 727 730 733 735 737 739 742 746 751 755 759 763 766 769 773
741 744 747 746 746 739 737 728 720 719 720 723 729 736 741 748 747 740 731 734 732 730 732 722 714 725 724 724 728 731 734 736 738 741 743 746 750 754 758 761 765 770 774 777
740 739 740 736 733 726 712 712 708 724 719 722 728 736 737 738 739 737 734 732 731 732 725 712 719 732 732 729 732 734 738 741 742 746 748 752 756 760 762 766 769 772 775 779
737 736 728 728 723 726 729 730 727 728 724 724 730 733 731 731 737 732 733 740 729 715 709 723 740 742 737 736 737 740 746 749 751 753 756 758 761 764 768 770 772 774 777 780
738 733 733 727 729 726 729 729 728 728 725 721 718 720 724 724 722 727 725 716 711 716 734 742 742 742 741 743 745 746 749 751 754 757 760 762 765 767 770 772 774 776 778 781
736 733 734 734 731 727 730 731 728 728 724 720 713 721 717 721 718 718 716 719 732 738 744 746 747 747 750 751 751 752 754 755 758 760 763 765 767 770 772 775 777 778 780 782